Location: Unspecified
(0.0000°N, 0.0000°E)
Time: 17:55:39
(UTC+00:00)

Courier 1B Rocket - Pass Details

Date: 19 December 2018
Orbit: 920 x 1202 km, 28.2° (Epoch: 17 June)

Event Time Altitude Azimuth Distance (km) Brightness Sun altitude
Rises 05:53:52 0° 274° (W) 3,557 7.3 -0.7°
Reaches altitude 10° 05:57:19 10° 292° (WNW) 2,602 6.6 0.1°
Maximum altitude 06:01:29 18° 334° (NNW) 2,063 6.3 1.0°
Drops below altitude 10° 06:05:40 10° 17° (NNE) 2,620 7.2 2.0°
Sets 06:09:12 0° 35° (NE) 3,592 8.1 2.8°
